Search projects


Showing 1-50 of 3,360 items.
NameOwnerPublication dateProject typeLikesViewed 
Built-in led 13 - Blink! ArduinoBlocks 2016-04-27 16:50:48Arduino Uno 112023
THLPaola Pérez2016-05-31 13:23:28Arduino Uno 11262
P01 - Secuencia 1Juanjo López2016-07-29 11:18:36Arduino Uno 01545
P01 - Secuencia 2Juanjo López2016-07-29 11:19:06Arduino Uno 11504
P02 - Amanecer / anochecerJuanjo López2016-07-29 11:24:13Arduino Uno 21836
P03 - Lampara intensidad manualJuanjo López2016-07-29 11:40:47Arduino Uno 01564
P03 - Lampara intensidad manual (b)Juanjo López2016-07-29 11:49:11Arduino Uno 01420
P04 - SemáforoJuanjo López2016-07-29 11:59:25Arduino Uno 31819
P10 - FotómetroJuanjo López2016-08-28 16:35:20Arduino Uno 11728
P11 - Iluminación crepuscularJuanjo López2016-08-28 16:55:00Arduino Uno 11621
P12 - Encendido / apagado con palmadaJuanjo López2016-08-28 17:01:22Arduino Uno 11728
P13 - TermómetroJuanjo López2016-08-28 17:24:03Arduino Uno 31784
P14 - TermostatoJuanjo López2016-08-28 17:47:34Arduino Uno 51958
P15 - Medidor de distanciaJuanjo López2016-08-28 19:16:33Arduino Uno 11838
P16 - Riego automáticoJuanjo López2016-08-28 19:27:45Arduino Uno 21860
P17 - Lámpara multicolor IRJuanjo López2016-08-28 19:44:31Arduino Uno 01615
P18 - Piano con tecladoJuanjo López2016-08-28 22:15:30Arduino Uno 01871
P19 - Sensor de aparcamientoJuanjo López2016-08-28 22:37:54Arduino Uno 31801
P20 - Control pan/tiltJuanjo López2016-08-28 23:06:39Arduino Uno 01790
P21 - Control led desde PCJuanjo López2016-08-28 23:31:50Arduino Uno 21607
P22 - Control relés bluetoothJuanjo López2016-08-29 10:19:06Arduino Uno 22084
P23 - Estación metereológica bluetoothJuanjo López2016-08-29 10:33:12Arduino Uno 01795
P24 - Control por voz AndroidJuanjo López2016-08-29 16:55:45Arduino Uno 21686
P25 - Control domoticoJuanjo López2016-08-29 17:52:18Arduino Uno 11849
P05 - TimbreJuanjo López2016-08-29 19:56:31Arduino Uno 11690
P06 - Control inteligenteJuanjo López2016-08-29 20:04:11Arduino Uno 11579
P07 - Encendido por movimientoJuanjo López2016-08-29 20:04:29Arduino Uno 01627
P08 - Contador manualJuanjo López2016-08-29 20:04:41Arduino Uno 11735
P09 - CronómetroJuanjo López2016-08-29 20:04:52Arduino Uno 31992
Hola mundoArduinoBlocks 2016-09-27 21:48:59Arduino Uno 52979
Termómetro digitalArduinoBlocks 2016-09-28 22:25:26Arduino Uno 53206
Control de led RGBArduinoBlocks 2016-09-29 16:42:45Arduino Uno 11880
Me gusta!ArduinoBlocks 2016-09-29 17:50:11Arduino Uno 22027
Sensor aparcamientoArduinoBlocks 2016-10-03 10:36:43Arduino Uno 146505
Led controlado con mando IRArduinoBlocks 2016-10-04 21:06:01Arduino Uno 42094
Control de led con palmadaArduinoBlocks 2016-10-07 10:39:01Arduino Uno 32806
Nivel de luz (LDR + servo)ArduinoBlocks 2016-10-12 12:01:41Arduino Uno 64751
Invernadero AutomaticoArgon Argon2016-10-12 22:49:59Arduino Uno 42072
Temperatura/Humedad BluetoothArduinoBlocks 2016-10-18 18:16:22Arduino Uno 97891
Condensador de fluzoArduinoBlocks 2016-10-20 19:35:51Arduino Uno 31552
Easy PLUG - Relé + LCDArduinoBlocks 2016-10-25 00:05:38Arduino Uno 21842
intermitencia del automóvil 1.0. + VIDEOSistemas Eléctricos Del Automovil2016-10-27 16:46:50Arduino Uno 0115
Encender/Apagar con un pulsadorArduinoBlocks 2016-11-19 10:51:36Arduino Uno 22311
Cuenta vueltas coches tipo ScalextricJaime Del Hoyo Gomez2016-11-27 18:58:02Arduino Uno 11909
Multitarea sin bloqueoArduinoBlocks 2016-12-01 12:02:58Arduino Uno 21826
GPS consolaArduinoBlocks 2016-12-04 22:51:35Arduino Uno 11396
GPS con pantalla LCDArduinoBlocks 2016-12-04 22:54:53Arduino Uno 21736
GPS tupperware 1.0ArduinoBlocks 2016-12-05 08:25:20Arduino Uno 11423
GPS aviso de velocidadArduinoBlocks 2016-12-05 09:10:19Arduino Uno 21585
Tareas 2.0ArduinoBlocks 2016-12-05 17:30:26Arduino Uno 01513